Location: St. Louis
(38.6270°N, 90.1994°W)
Time: 07:08:12
(UTC-06:00)

Explorer 7 - All Passes

Search period start: 09 December 2021 00:00
Search period end: 19 December 2021 00:00
Orbit: 483 x 675 km, 50.3° (Epoch: 08 December)

Date Brightness Start Highest point End Pass type
(mag) Time Alt. Az. Time Alt. Az. Time Alt. Az.
09 Dec - 02:37:08 10° SSW 02:41:34 44° SE 02:45:47 10° ENE night (unlit)
09 Dec - 04:17:54 10° W 04:22:08 37° NNW 04:26:08 10° NE visible
09 Dec - 06:00:37 10° NW 06:03:30 17° N 06:06:17 10° NE visible
09 Dec - 07:42:08 10° NW 07:45:11 20° NNE 07:48:06 10° ENE daylight
09 Dec - 09:22:18 10° NW 09:26:16 63° NE 09:30:02 10° ESE daylight
09 Dec - 11:03:46 10° W 11:06:17 17° SW 11:08:45 10° S daylight
10 Dec - 01:04:03 10° SE 01:05:33 11° SE 01:07:01 10° ESE night (unlit)
10 Dec - 02:40:51 10° SW 02:45:31 71° SE 02:49:56 10° ENE night (unlit)
10 Dec - 04:22:23 10° W 04:26:18 28° NNW 04:30:02 10° NE visible
10 Dec - 06:05:05 10° NW 06:07:51 16° N 06:10:30 10° NE visible
10 Dec - 07:46:04 10° NW 07:49:27 24° NNE 07:52:41 10° ENE daylight
10 Dec - 09:26:18 10° NW 09:30:17 79° SW 09:34:05 10° SE daylight
11 Dec - 01:05:59 10° S 01:09:20 19° SE 01:12:35 10° E night (unlit)
11 Dec - 02:44:50 10° WSW 02:49:31 75° NW 02:53:56 10° NE night (unlit)
11 Dec - 04:26:56 10° WNW 04:30:33 23° NNW 04:33:59 10° NE visible
11 Dec - 06:09:23 10° NW 06:12:11 17° N 06:14:53 10° NE visible
11 Dec - 07:49:57 10° NW 07:53:40 31° NNE 07:57:11 10° E daylight
11 Dec - 09:30:25 10° WNW 09:34:13 45° SW 09:37:51 10° SSE daylight
12 Dec - 01:09:00 10° SSW 01:13:10 31° SE 01:17:11 10° ENE night (unlit)
12 Dec - 02:49:01 10° WSW 02:53:34 51° NNW 02:57:53 10° NE night (unlit)
12 Dec - 04:31:32 10° WNW 04:34:49 20° NNW 04:37:58 10° NE visible
12 Dec - 06:13:32 10° NW 06:16:31 18° N 06:19:24 10° NE visible
12 Dec - 07:53:52 10° NW 07:57:49 45° NNE 08:01:34 10° ESE daylight
12 Dec - 09:34:44 10° WNW 09:38:05 26° SW 09:41:18 10° S daylight
13 Dec - 01:12:27 10° SSW 01:17:03 49° SE 01:21:27 10° ENE night (unlit)
13 Dec - 02:53:22 10° W 02:57:41 36° NNW 03:01:47 10° NE night (unlit)
13 Dec - 04:36:05 10° NW 04:39:08 18° N 04:42:04 10° NE visible
13 Dec - 06:17:32 10° NW 06:20:50 21° NNE 06:23:58 10° ENE visible
13 Dec - 07:57:47 10° NW 08:01:54 70° NE 08:05:46 10° ESE daylight
13 Dec - 09:39:29 10° W 09:41:52 15° SW 09:44:11 10° SSW daylight
13 Dec - 23:38:46 10° SSE 23:40:59 13° SE 23:43:11 10° E night (unlit)
14 Dec - 01:16:13 10° SW 01:21:00 78° SE 01:25:33 10° NE night (unlit)
14 Dec - 02:57:51 10° W 03:01:52 28° NNW 03:05:42 10° NE night (unlit)
14 Dec - 04:40:30 10° NW 04:43:28 17° N 04:46:19 10° NE visible
14 Dec - 06:21:29 10° NW 06:25:05 26° NNE 06:28:31 10° ENE visible
14 Dec - 08:01:48 10° WNW 08:05:54 72° SW 08:09:45 10° SE daylight
14 Dec - 23:41:07 10° S 23:44:46 22° SE 23:48:20 10° E night (unlit)
15 Dec - 01:20:14 10° WSW 01:25:00 70° NW 01:29:33 10° NE night (unlit)
15 Dec - 03:02:24 10° WNW 03:06:07 23° NNW 03:09:39 10° NE night (unlit)
15 Dec - 04:44:47 10° NW 04:47:48 18° N 04:50:43 10° NE visible
15 Dec - 06:25:22 10° NW 06:29:17 34° NNE 06:32:59 10° E visible
15 Dec - 08:05:56 10° WNW 08:09:48 41° SW 08:13:28 10° SSE daylight
15 Dec - 23:44:15 10° SSW 23:48:36 34° SE 23:52:50 10° ENE night (unlit)
16 Dec - 01:24:26 10° WSW 01:29:04 48° NNW 01:33:29 10° NE night (unlit)
16 Dec - 03:06:59 10° WNW 03:10:24 20° N 03:13:40 10° NE night (unlit)
16 Dec - 04:48:54 10° NW 04:52:08 19° N 04:55:14 10° ENE visible
16 Dec - 06:29:16 10° NW 06:33:25 49° NNE 06:37:18 10° ESE visible
16 Dec - 08:10:18 10° WNW 08:13:38 24° SW 08:16:50 10° S daylight
16 Dec - 23:47:45 10° SW 23:52:29 55° SE 23:57:03 10° ENE night (unlit)
17 Dec - 01:28:49 10° W 01:33:12 35° NNW 01:37:23 10° NE night (unlit)
17 Dec - 03:11:29 10° NW 03:14:43 18° N 03:17:48 10° NE visible
17 Dec - 04:52:53 10° NW 04:56:25 23° NNE 04:59:47 10° ENE visible
17 Dec - 06:33:13 10° NW 06:37:29 77° NE 06:41:28 10° ESE visible
17 Dec - 08:15:09 10° W 08:17:24 14° SW 08:19:35 10° SSW daylight
17 Dec - 22:13:41 10° SSE 22:16:23 15° SE 22:19:03 10° E night (unlit)
17 Dec - 23:51:34 10° SW 23:56:26 85° SE 00:01:07 10° NE night (unlit)
18 Dec - 01:33:18 10° W 01:37:22 28° NNW 01:41:18 10° NE night (unlit)
18 Dec - 03:15:53 10° NW 03:19:02 18° N 03:22:05 10° NE visible
18 Dec - 04:56:49 10° NW 05:00:40 28° NNE 05:04:18 10° E visible
18 Dec - 06:37:14 10° WNW 06:41:27 66° SW 06:45:23 10° SE visible
18 Dec - 22:16:16 10° S 22:20:09 24° SE 22:23:59 10° ENE night (unlit)
